Regional Weather Roundup
Issued by NWS

Home | Current Version | Previous Version | Text Only | Print | Product List | Glossary Off
Versions: 1 2 3 4 5 6 7 8 9 10 11 12 13 14 15 16 17 18 19 20 21 22 23 24 25 26 27

000
ASUS45 KBOU 232307
RWRCO

WEATHER ROUNDUP FOR COLORADO
NATIONAL WEATHER SERVICE DENVER/BOULDER CO
400 PM MST MON JAN 23 2017

NOTE: "FAIR" INDICATES FEW OR NO CLOUDS BELOW 12000 FEET WITH NO
SIGNIFICANT WEATHER AND/OR OBSTRUCTIONS TO VISIBILITY.

COZ001>005-013-030-031-240000-
...NORTHWEST COLORADO...

CITY           SKY/WX    TMP DP  RH WIND       PRES   REMARKS
CRAIG          CLOUDY    39  24  55 SW9G20    29.46F
HAYDEN         NOT AVBL
MEEKER         SNOW      32  27  81 W23G44    29.52R VSB 1/2 WCI  19
MOUNT WERNER   NOT AVBL
STEAMBOAT SPGS CLOUDY    36  24  62 CALM      29.48F
WALDEN           N/A     28  21  74 NE5       29.52F WCI  23
$$

COZ006>008-011-240000-
...WEST CENTRAL VALLEYS...

CITY           SKY/WX    TMP DP  RH WIND       PRES   REMARKS
GRAND JUNCTION CLOUDY    33  33 100 N12       29.57S WCI  24
MONTROSE       LGT RAIN  42  27  55 SW32G51   29.59R
EAGLE          CLOUDY    36  30  80 CALM      29.56F
RIFLE          LGT RAIN  41  30  65 NW3       29.50F
DELTA          LGT RAIN  39  35  83 SW37G46   29.61R
NUCLA          CLOUDY    32  30  93 W21G28    29.67R WCI  20
$$

COZ017>023-064>068-240000-
...SOUTHWEST COLORADO...

CITY           SKY/WX    TMP DP  RH WIND       PRES   REMARKS
DURANGO        CLOUDY    32  29  88 NE5       29.68F WCI  27
CORTEZ         LGT SNOW  34  33  96 SW17G31   29.67S VSB 1   WCI  23
PAGOSA SPRINGS FLURRIES  31  30  97 CALM      29.70S
TELLURIDE      NOT AVBL
WOLF CREEK PAS CLOUDY    18  18 100 SW35G51   29.62R WCI  -3
$$

COZ009-010-012-014-032>034-037-058>063-240000-
...CENTRAL COLORADO...

CITY           SKY/WX    TMP DP  RH WIND       PRES   REMARKS
ASPEN          LGT SNOW  29  28  96 CALM      29.54F FOG
BUENA VISTA    FLURRIES  32  25  76 NW7       29.58S WCI  25
COPPER MTN     SNOW      23  16  74 MISG      29.58S VSB 1/2
BERTHOUD PASS  CLOUDY    14   3  62 MISG      29.58S
COTTONWOOD PAS NOT AVBL
GUNNISON       CLOUDY    32  21  64 NW8       29.58S WCI  25
KREMMLING      FLURRIES  37  30  75 W14       29.55S
LEADVILLE      LGT SNOW  22  18  85 SE13      29.56S VSB 3/4 WCI  10
MONARCH PASS   CLOUDY    19  16  86 SW16G40   29.68S WCI   5
SALIDA         CLOUDY    38  26  61 SW9       29.65S
SUNLIGHT       CLOUDY    19  19 100 SW18G33   29.56R WCI   4
WILKERSON PASS SNOW     N/A N/A N/A SW6       29.63R VSB 1/2
$$

COZ069>075-240000-
...SAN LUIS VALLEY/SANGRE DE CRISTO MOUNTAINS...

CITY           SKY/WX    TMP DP  RH WIND       PRES   REMARKS
ALAMOSA        PTSUNNY   36  28  73 W14       29.63F
LA VETA PASS   CLOUDY    27  23  86 NE32G54   29.59F WCI  10
SAGUACHE       FAIR      34  25  69 N5        29.61F WCI  30
$$

COZ035-036-038>040-240000-
...NORTHERN COLORADO FRONT RANGE...

CITY           SKY/WX    TMP DP  RH WIND       PRES   REMARKS
DENVER INTL AP PTSUNNY   46  30  53 E6        29.49F
DMNS CITY PARK   N/A     48  22  35 NW5G15    29.50S
AURORA         PTSUNNY   49  22  35 W8        29.50S
FRONT RANGE AP PTSUNNY   46  32  57 NE10      29.51S
ERIE MUNI ARPT CLOUDY    50  22  34 CALM      29.50R
BOULDER MUN AP CLOUDY    50  23  34 S8        29.50R
CENTENNIAL     PTSUNNY   49  21  33 W16       29.50S
BROOMFIELD     PTSUNNY   48  21  34 SW9       29.51F
FORT COLLINS   FAIR      47  26  44 SE7       29.50R
LONGMONT       CLOUDY    50  28  43 NW7       29.52R
$$

COZ041-046-047-076>085-087-088-240000-
...PIKES PEAK/PALMER DIVIDE AND SOUTHERN FOOTHILLS...

CITY           SKY/WX    TMP DP  RH WIND       PRES   REMARKS
COLO. SPRINGS  PTSUNNY   48  16  27 S8        29.55F
A. F. ACADEMY  CLOUDY    45  17  33 SW8       29.54F
SCHRIEVER AFB  PTSUNNY   47  18  31 S16G22    29.55F
ELLICOTT       FAIR     N/A N/A N/A SW20      29.54F
FALCON         CLOUDY    44  16  31 S6        29.57F
FORT CARSON    MOSUNNY   52  18  26 S13       29.52S
LIMON          FAIR      51  21  30 SW18G26   29.52S
MONUMENT HILL  FAIR      41  19  42 SW13      29.56S
TRINIDAD       FAIR      45  25  45 SW20G26   29.62F
$$

COZ042>045-048>051-090-091-240000-
...NORTHEAST COLORADO...

CITY           SKY/WX    TMP DP  RH WIND       PRES   REMARKS
GREELEY ARPT   FAIR      45  28  51 NE5       29.51F
AKRON          MOCLDY    43  24  47 E10       29.53S
BURLINGTON     FAIR      53  32  44 E10       29.54R
WRAY           NOT AVBL
STERLING       FAIR      45  28  53 E6        29.53S
HOLYOKE        FAIR      43  30  61 CALM      29.57R
FORT MORGAN    MOCLDY    40  24  51 E9        29.53S
$$

COZ086-089-092>099-240000-
...SOUTHEAST COLORADO...

CITY           SKY/WX    TMP DP  RH WIND       PRES   REMARKS
PUEBLO         FAIR      54  25  32 S23G31    29.53F
LA JUNTA       FAIR      52  30  43 SW12      29.56F
LAMAR          FAIR      59  29  31 SW21G28   29.54F
SPRINGFIELD      N/A     60  19  20 SW20G31   29.60R
$$




USA.gov is the U.S. government's official web portal to all federal, state and local government web resources and services.